TimeEST,TemperatureF,Dew PointF,Humidity,Sea Level PressureIn,VisibilityMPH,Wind Direction,Wind SpeedMPH,Gust SpeedMPH,PrecipitationIn,Events,Conditions,WindDirDegrees,DateUTC
12:55 AM,49.1,36.3,61,30.17,10.0,NNE,6.9,-,N/A,,Overcast,20,2012-12-07 05:55:00
1:55 AM,49.1,35.6,60,30.16,10.0,NNE,4.6,-,N/A,,Overcast,20,2012-12-07 06:55:00
2:44 AM,48.2,35.6,62,30.14,10.0,NE,8.1,-,N/A,,Overcast,50,2012-12-07 07:44:00
2:55 AM,48.9,35.8,61,30.14,10.0,NNE,5.8,-,N/A,,Overcast,30,2012-12-07 07:55:00
3:55 AM,48.7,36.5,63,30.14,10.0,NNE,6.9,-,N/A,,Overcast,30,2012-12-07 08:55:00
4:55 AM,48.7,36.7,63,30.12,10.0,NNE,5.8,-,N/A,,Overcast,30,2012-12-07 09:55:00
5:44 AM,48.2,37.4,66,30.12,10.0,NNE,4.6,-,N/A,,Overcast,20,2012-12-07 10:44:00
5:45 AM,48.2,37.4,66,30.12,10.0,NNE,4.6,-,N/A,,Overcast,20,2012-12-07 10:45:00
5:55 AM,48.9,37.4,64,30.13,10.0,North,4.6,-,N/A,,Overcast,10,2012-12-07 10:55:00
6:55 AM,48.7,37.9,66,30.13,10.0,NNE,3.5,-,N/A,,Overcast,30,2012-12-07 11:55:00
7:55 AM,49.3,39.6,69,30.14,10.0,Variable,4.6,-,N/A,,Overcast,0,2012-12-07 12:55:00
8:12 AM,50.0,39.2,66,30.14,10.0,NNE,4.6,-,N/A,Rain,Light Rain,20,2012-12-07 13:12:00
8:23 AM,50.0,41.0,71,30.14,10.0,NE,5.8,-,N/A,,Overcast,50,2012-12-07 13:23:00
8:55 AM,49.6,40.6,71,30.14,10.0,Variable,3.5,-,0.00,,Overcast,0,2012-12-07 13:55:00
9:55 AM,51.3,41.7,70,30.14,10.0,NE,6.9,-,N/A,,Overcast,40,2012-12-07 14:55:00
10:55 AM,52.5,43.0,70,30.13,10.0,Calm,Calm,-,N/A,,Overcast,0,2012-12-07 15:55:00
11:55 AM,54.9,43.9,66,30.09,10.0,NNE,4.6,-,N/A,,Overcast,30,2012-12-07 16:55:00
12:19 PM,55.4,44.6,67,30.08,10.0,Calm,Calm,-,N/A,,Overcast,0,2012-12-07 17:19:00
12:55 PM,56.3,44.8,65,30.06,10.0,NNW,5.8,-,N/A,,Overcast,340,2012-12-07 17:55:00
1:55 PM,57.2,45.5,65,30.04,10.0,NW,5.8,-,N/A,,Overcast,320,2012-12-07 18:55:00
2:55 PM,57.9,46.8,66,30.03,10.0,NW,5.8,-,N/A,,Overcast,310,2012-12-07 19:55:00
3:55 PM,57.2,47.7,70,30.02,10.0,NNW,5.8,-,N/A,,Overcast,330,2012-12-07 20:55:00
4:55 PM,56.3,48.4,75,30.03,10.0,NW,4.6,-,N/A,,Overcast,320,2012-12-07 21:55:00
5:55 PM,55.2,48.7,79,30.04,7.0,NW,4.6,-,N/A,,Overcast,320,2012-12-07 22:55:00
6:55 PM,54.1,48.6,81,30.04,10.0,NNW,6.9,-,N/A,,Overcast,330,2012-12-07 23:55:00
7:55 PM,53.6,48.9,84,30.04,10.0,NNW,4.6,-,N/A,,Overcast,330,2012-12-08 00:55:00
8:27 PM,53.6,48.2,82,30.04,10.0,NW,3.5,-,N/A,,Overcast,320,2012-12-08 01:27:00
8:55 PM,53.2,48.9,85,30.04,7.0,Calm,Calm,-,N/A,,Mostly Cloudy,0,2012-12-08 01:55:00
9:45 PM,50.0,48.2,94,30.04,6.0,NW,3.5,-,N/A,,Mostly Cloudy,310,2012-12-08 02:45:00
9:55 PM,49.5,47.3,92,30.04,6.0,WNW,5.8,-,N/A,,Mostly Cloudy,300,2012-12-08 02:55:00
10:20 PM,48.2,46.4,93,30.04,6.0,NW,4.6,-,N/A,,Partly Cloudy,320,2012-12-08 03:20:00
10:49 PM,48.2,48.2,100,30.04,6.0,WNW,2.3,-,N/A,,Mostly Cloudy,300,2012-12-08 03:49:00
10:55 PM,48.2,47.8,99,30.04,6.0,Calm,Calm,-,N/A,,Mostly Cloudy,0,2012-12-08 03:55:00
11:01 PM,48.2,48.2,100,30.04,6.0,Calm,Calm,-,N/A,,Mostly Cloudy,0,2012-12-08 04:01:00
11:55 PM,47.3,47.1,99,30.04,8.0,Calm,Calm,-,N/A,,Mostly Cloudy,0,2012-12-08 04:55:00